Regional Weather Roundup
Issued by NWS Cleveland, OH

Home | Current Version | Previous Version | Text Only | Print | Product List | Glossary Off
Versions: 1 2 3 4 5 6 7 8 9 10 11 12 13 14 15 16 17 18 19 20 21 22 23 24 25 26 27 28 29 30 31 32 33 34 35 36 37 38 39 40 41 42 43 44 45 46 47 48 49 50

647
ASUS41 KCLE 201100
RWRCLE
OHIO REGIONAL WEATHER ROUNDUP
NATIONAL WEATHER SERVICE WILMINGTON, OH
600 AM EST FRI JAN 20 2017

NOTE: "FAIR" INDICATES FEW OR NO CLOUDS BELOW 12,000 FEET WITH NO
SIGNIFICANT WEATHER AND/OR OBSTRUCTIONS TO VISIBILITY.

OHZ001>008-015>018-024>027-034-035-043-044-201200-
   NORTHWEST OHIO

CITY           SKY/WX    TMP DP  RH WIND       PRES   REMARKS
DEFIANCE       RAIN      35  34  96 E7        29.64S FOG     WCI  29
FINDLAY        RAIN      41  37  86 E14       29.59F FOG
TOLEDO EXPRESS LGT RAIN  35  35 100 E9        29.64F FOG     WCI  28
TOLEDO EXEC    LGT RAIN  36  36 100 E9        29.66F FOG
LIMA           RAIN      41  41 100 SE15      29.59S FOG
$$

OHZ009>014-019>023-028>033-038-089-201200-
   NORTHEAST OHIO

CITY           SKY/WX    TMP DP  RH WIND       PRES   REMARKS
CLE-HOPKINS    LGT RAIN  42  36  79 E5        29.73F
CLE-LAKEFRONT  LGT RAIN  40  34  79 E7        29.70F
CUY CO. ARPT   NOT AVBL
LORAIN-ELYRIA  LGT RAIN  38  34  85 SE7       29.70F FOG
ASHTABULA      FAIR      36  32  85 SE9       29.75F
AKRON-CANTON   LGT RAIN  39  35  86 SE9       29.71F FOG
WOOSTER        NOT AVBL
MANSFIELD      LGT RAIN  39  38  96 E12       29.65F FOG
YOUNGSTOWN     LGT RAIN  36  32  85 E9        29.74F
$$

OHZ042-051>053-060>062-070>072-077>081-201200-
  SOUTHWEST OHIO

CITY           SKY/WX    TMP DP  RH WIND       PRES   REMARKS
CINC-COVINGTON LGT RAIN  53  53 100 W10       29.62R FOG
CINC-LUNKEN    LGT RAIN  52  52 100 SW8       29.64R FOG
HAMILTON       LGT RAIN  52  52 100 VRB3      29.63R
DAYTON         NOT AVBL
WRIGHT-PAT AFB NOT AVBL
DAYTON GENERAL LGT RAIN  50  49  96 S12       29.60R FOG
WILMINGTON     LGT RAIN  48  47  96 S12       29.62R
$$

OHZ036-037-039>041-045>050-054>059-063>069-073>076-082>088-201200-
  CENTRAL AND SOUTHEAST OHIO

CITY           SKY/WX    TMP DP  RH WIND       PRES   REMARKS
COLUMBUS       HVY RAIN  45  41  86 SE14      29.64S FOG
OSU AIRPORT    LGT RAIN  43  43 100 SE10      29.63R FOG
BOLTON FIELD   NOT AVBL
RICKENBACK AFB NOT AVBL
NEWARK         LGT RAIN  41  39  93 NE6       29.66F FOG
MARION         RAIN      43  40  89 SE13      29.61F FOG
LANCASTER      HVY RAIN  44  42  93 S7        29.66F FOG
ZANESVILLE     LGT RAIN  41  39  93 E7        29.68F FOG
NEW PHILLY     LGT RAIN  39  38  96 S5        29.73S FOG
$$




USA.gov is the U.S. government's official web portal to all federal, state and local government web resources and services.